This is the latest recevied weather packets stored in our database for station/object KD8BMB. If no packets are shown the sender has not sent any weather packets the latest 10 day(s).
| Time | Temp. | Humidity | Pressure | Rain* | Wind** | Luminosity | Snow |
|---|---|---|---|---|---|---|---|
| 1777415315 | 16.11° C | 69% | 1011.2 hPa | 0 mm | - | 216 W/m² | - |
| 1777415010 | 16.11° C | 70% | 1011.1 hPa | 0 mm | - | 157 W/m² | - |
| 1777414709 | 16.11° C | 69% | 1011.2 hPa | 0 mm | - | 237 W/m² | - |
| 1777414406 | 16.11° C | 70% | 1011 hPa | 0 mm | - | 228 W/m² | - |
| 1777414105 | 16.11° C | 69% | 1010.9 hPa | 0 mm | - | 255 W/m² | - |
| 1777413800 | 16.11° C | 70% | 1010.7 hPa | 0 mm | - | 267 W/m² | - |
| 1777413495 | 15.56° C | 72% | 1010.7 hPa | 0 mm | - | 265 W/m² | - |
| 1777413192 | 15° C | 72% | 1010.9 hPa | 0 mm | - | 93 W/m² | - |
| 1777412887 | 15.56° C | 71% | 1011 hPa | 0 mm | - | 370 W/m² | - |
| 1777412581 | 15.56° C | 72% | 1011.2 hPa | 0 mm | - | 327 W/m² | - |
| 1777412278 | 15° C | 73% | 1011 hPa | 0 mm | - | 364 W/m² | - |
| 1777411975 | 15° C | 73% | 1011.2 hPa | 0 mm | - | 189 W/m² | - |
| 1777411674 | 15.56° C | 72% | 1011.1 hPa | 0 mm | - | 399 W/m² | - |
| 1777411369 | 15.56° C | 73% | 1011 hPa | 0 mm | - | 377 W/m² | - |
| 1777411068 | 15° C | 73% | 1011.2 hPa | 0 mm | - | 320 W/m² | - |
| 1777410763 | 15° C | 73% | 1011.2 hPa | 0 mm | - | 356 W/m² | - |
| 1777410457 | 15° C | 74% | 1011.5 hPa | 0 mm | - | 196 W/m² | - |
| 1777410156 | 14.44° C | 74% | 1011.1 hPa | 0 mm | - | 178 W/m² | - |
| 1777409851 | 14.44° C | 74% | 1011.2 hPa | 0 mm | - | 240 W/m² | - |
| 1777409547 | 14.44° C | 75% | 1011.6 hPa | 0 mm | - | 325 W/m² | - |
| 1777409243 | 14.44° C | 76% | 1011.3 hPa | 0 mm | - | 530 W/m² | - |
| 1777408939 | 13.89° C | 79% | 1011.4 hPa | 0 mm | - | 218 W/m² | - |
| 1777408636 | 13.89° C | 79% | 1011.3 hPa | 0 mm | - | 259 W/m² | - |
| 1777408332 | 13.89° C | 79% | 1011.1 hPa | 0 mm | - | 247 W/m² | - |
| 1777408031 | 13.89° C | 78% | 1011.3 hPa | 0 mm | - | 161 W/m² | - |
* Rain latest hour (hover to see other rain measurements)
** Current wind speed in m/s (hover to see current wind gust speed)